Year,Month,Day,Hour,Minute,Value (Times are PST for temperature in C)
2007,06,26,00,00,10.90
2007,06,26,00,01,10.90
2007,06,26,00,02,10.90
2007,06,26,00,03,10.90
2007,06,26,00,04,10.90
2007,06,26,00,05,10.80
2007,06,26,00,06,10.80
2007,06,26,00,07,10.80
2007,06,26,00,08,10.80
2007,06,26,00,09,10.80
2007,06,26,00,10,10.80
2007,06,26,00,11,10.80
2007,06,26,00,12,10.80
2007,06,26,00,13,10.80
2007,06,26,00,14,10.80
2007,06,26,00,15,10.80
2007,06,26,00,16,10.80
2007,06,26,00,17,10.80
2007,06,26,00,18,10.80
2007,06,26,00,19,10.80
2007,06,26,00,20,10.80
2007,06,26,00,21,10.80
2007,06,26,00,22,10.80
2007,06,26,00,23,10.80
2007,06,26,00,24,10.80
2007,06,26,00,25,10.80
2007,06,26,00,26,10.80
2007,06,26,00,27,10.80
2007,06,26,00,28,10.80
2007,06,26,00,29,10.80
2007,06,26,00,30,10.90
2007,06,26,00,31,10.90
2007,06,26,00,32,10.90
2007,06,26,00,33,10.90
2007,06,26,00,34,10.90
2007,06,26,00,35,10.90
2007,06,26,00,36,10.90
2007,06,26,00,37,11.00
2007,06,26,00,38,11.00
2007,06,26,00,39,10.90
2007,06,26,00,40,10.90
2007,06,26,00,41,10.90
2007,06,26,00,42,10.90
2007,06,26,00,43,10.90
2007,06,26,00,44,10.90
2007,06,26,00,45,10.80
2007,06,26,00,46,10.80
2007,06,26,00,47,10.80
2007,06,26,00,48,10.80
2007,06,26,00,49,10.80
2007,06,26,00,50,10.80
2007,06,26,00,51,10.70
2007,06,26,00,52,10.70
2007,06,26,00,53,10.70
2007,06,26,00,54,10.70
2007,06,26,00,55,10.70
2007,06,26,00,56,10.70
2007,06,26,00,57,10.60
2007,06,26,00,58,10.60
2007,06,26,00,59,10.60
2007,06,26,01,00,10.60
2007,06,26,01,01,10.60
2007,06,26,01,02,10.60
2007,06,26,01,03,10.70
2007,06,26,01,04,10.70
2007,06,26,01,05,10.70
2007,06,26,01,06,10.70
2007,06,26,01,07,10.70
2007,06,26,01,08,10.70
2007,06,26,01,09,10.70
2007,06,26,01,10,10.70
2007,06,26,01,11,10.70
2007,06,26,01,12,10.70
2007,06,26,01,13,10.70
2007,06,26,01,14,10.70
2007,06,26,01,15,10.70
2007,06,26,01,16,10.70
2007,06,26,01,17,10.60
2007,06,26,01,18,10.60
2007,06,26,01,19,10.60
2007,06,26,01,20,10.60
2007,06,26,01,21,10.60
2007,06,26,01,22,10.60
2007,06,26,01,23,10.60
2007,06,26,01,24,10.60
2007,06,26,01,25,10.60
2007,06,26,01,26,10.60
2007,06,26,01,27,10.50
2007,06,26,01,28,10.40
2007,06,26,01,29,10.40
2007,06,26,01,30,10.40
2007,06,26,01,31,10.40
2007,06,26,01,32,10.40
2007,06,26,01,33,10.40
2007,06,26,01,34,10.40
2007,06,26,01,35,10.40
2007,06,26,01,36,10.40
2007,06,26,01,37,10.40
2007,06,26,01,38,10.40
2007,06,26,01,39,10.40
2007,06,26,01,40,10.40
2007,06,26,01,41,10.40
2007,06,26,01,42,10.40
2007,06,26,01,43,10.40
2007,06,26,01,44,10.40
2007,06,26,01,45,10.40
2007,06,26,01,46,10.40
2007,06,26,01,47,10.40
2007,06,26,01,48,10.40
2007,06,26,01,49,10.40
2007,06,26,01,50,10.40
2007,06,26,01,51,10.30
2007,06,26,01,52,10.30
2007,06,26,01,53,10.30
2007,06,26,01,54,10.30
2007,06,26,01,55,10.20
2007,06,26,01,56,10.20
2007,06,26,01,57,10.20
2007,06,26,01,58,10.20
2007,06,26,01,59,10.20
2007,06,26,02,00,10.20
2007,06,26,02,01,10.20
2007,06,26,02,02,10.20
2007,06,26,02,03,10.20
2007,06,26,02,04,10.20
2007,06,26,02,05,10.20
2007,06,26,02,06,10.20
2007,06,26,02,07,10.30
2007,06,26,02,08,10.30
2007,06,26,02,09,10.30
2007,06,26,02,10,10.40
2007,06,26,02,11,10.40
2007,06,26,02,12,10.40
2007,06,26,02,13,10.40
2007,06,26,02,14,10.40
2007,06,26,02,15,10.40
2007,06,26,02,16,10.40
2007,06,26,02,17,10.50
2007,06,26,02,18,10.60
2007,06,26,02,19,10.60
2007,06,26,02,20,10.60
2007,06,26,02,21,10.70
2007,06,26,02,22,10.70
2007,06,26,02,23,10.70
2007,06,26,02,24,10.70
2007,06,26,02,25,10.70
2007,06,26,02,26,10.70
2007,06,26,02,27,10.70
2007,06,26,02,28,10.70
2007,06,26,02,29,10.70
2007,06,26,02,30,10.70
2007,06,26,02,31,10.70
2007,06,26,02,32,10.80
2007,06,26,02,33,10.80
2007,06,26,02,34,10.80
2007,06,26,02,35,10.80
2007,06,26,02,36,10.80
2007,06,26,02,37,10.80
2007,06,26,02,38,10.80
2007,06,26,02,39,10.80
2007,06,26,02,40,10.80
2007,06,26,02,41,10.70
2007,06,26,02,42,10.70
2007,06,26,02,43,10.70
2007,06,26,02,44,10.70
2007,06,26,02,45,10.60
2007,06,26,02,46,10.60
2007,06,26,02,47,10.60
2007,06,26,02,48,10.60
2007,06,26,02,49,10.70
2007,06,26,02,50,10.70
2007,06,26,02,51,10.60
2007,06,26,02,52,10.60
2007,06,26,02,53,10.60
2007,06,26,02,54,10.60
2007,06,26,02,55,10.60
2007,06,26,02,56,10.60
2007,06,26,02,57,10.60
2007,06,26,02,58,10.60
2007,06,26,02,59,10.60
2007,06,26,03,00,10.60
2007,06,26,03,01,10.60
2007,06,26,03,02,10.60
2007,06,26,03,03,10.60
2007,06,26,03,04,10.60
2007,06,26,03,05,10.60
2007,06,26,03,06,10.60
2007,06,26,03,07,10.60
2007,06,26,03,08,10.60
2007,06,26,03,09,10.60
2007,06,26,03,10,10.60
2007,06,26,03,11,10.60
2007,06,26,03,12,10.60
2007,06,26,03,13,10.60
2007,06,26,03,14,10.60
2007,06,26,03,15,10.60
2007,06,26,03,16,10.60
2007,06,26,03,17,10.60
2007,06,26,03,18,10.60
2007,06,26,03,19,10.60
2007,06,26,03,20,10.60
2007,06,26,03,21,10.60
2007,06,26,03,22,10.60
2007,06,26,03,23,10.60
2007,06,26,03,24,10.60
2007,06,26,03,25,10.60
2007,06,26,03,26,10.60
2007,06,26,03,27,10.70
2007,06,26,03,28,10.60
2007,06,26,03,29,10.60
2007,06,26,03,30,10.60
2007,06,26,03,31,10.60
2007,06,26,03,32,10.60
2007,06,26,03,33,10.60
2007,06,26,03,34,10.60
2007,06,26,03,35,10.60
2007,06,26,03,36,10.50
2007,06,26,03,37,10.40
2007,06,26,03,38,10.40
2007,06,26,03,39,10.40
2007,06,26,03,40,10.40
2007,06,26,03,41,10.40
2007,06,26,03,42,10.40
2007,06,26,03,43,10.40
2007,06,26,03,44,10.30
2007,06,26,03,45,10.30
2007,06,26,03,46,10.30
2007,06,26,03,47,10.30
2007,06,26,03,48,10.20
2007,06,26,03,49,10.20
2007,06,26,03,50,10.20
2007,06,26,03,51,10.20
2007,06,26,03,52,10.20
2007,06,26,03,53,10.20
2007,06,26,03,54,10.20
2007,06,26,03,55,10.20
2007,06,26,03,56,10.20
2007,06,26,03,57,10.20
2007,06,26,03,58,10.20
2007,06,26,03,59,10.20
2007,06,26,04,00,10.10
2007,06,26,04,01,10.10
2007,06,26,04,02,10.10
2007,06,26,04,03,10.20
2007,06,26,04,04,10.20
2007,06,26,04,05,10.20
2007,06,26,04,06,10.20
2007,06,26,04,07,10.30
2007,06,26,04,08,10.30
2007,06,26,04,09,10.30
2007,06,26,04,10,10.40
2007,06,26,04,11,10.50
2007,06,26,04,12,10.60
2007,06,26,04,13,10.60
2007,06,26,04,14,10.70
2007,06,26,04,15,10.70
2007,06,26,04,16,10.80
2007,06,26,04,17,10.90
2007,06,26,04,18,10.90
2007,06,26,04,19,10.90
2007,06,26,04,20,10.90
2007,06,26,04,21,10.90
2007,06,26,04,22,11.00
2007,06,26,04,23,11.10
2007,06,26,04,24,11.10
2007,06,26,04,25,11.10
2007,06,26,04,26,11.10
2007,06,26,04,27,11.10
2007,06,26,04,28,11.20
2007,06,26,04,29,11.20
2007,06,26,04,30,11.20
2007,06,26,04,31,11.20
2007,06,26,04,32,11.20
2007,06,26,04,33,11.20
2007,06,26,04,34,11.30
2007,06,26,04,35,11.30
2007,06,26,04,36,11.30
2007,06,26,04,37,11.30
2007,06,26,04,38,11.30
2007,06,26,04,39,11.30
2007,06,26,04,40,11.30
2007,06,26,04,41,11.30
2007,06,26,04,42,11.30
2007,06,26,04,43,11.30
2007,06,26,04,44,11.30
2007,06,26,04,45,11.30
2007,06,26,04,46,11.20
2007,06,26,04,47,11.20
2007,06,26,04,48,11.20
2007,06,26,04,49,11.20
2007,06,26,04,50,11.10
2007,06,26,04,51,11.10
2007,06,26,04,52,11.10
2007,06,26,04,53,11.10
2007,06,26,04,54,11.10
2007,06,26,04,55,11.10
2007,06,26,04,56,11.10
2007,06,26,04,57,11.10
2007,06,26,04,58,11.00
2007,06,26,04,59,10.90
2007,06,26,05,00,10.90
2007,06,26,05,01,10.90
2007,06,26,05,02,10.90
2007,06,26,05,03,10.90
2007,06,26,05,04,10.80
2007,06,26,05,05,10.80
2007,06,26,05,06,10.70
2007,06,26,05,07,10.70
2007,06,26,05,08,10.70
2007,06,26,05,09,10.60
2007,06,26,05,10,10.60
2007,06,26,05,11,10.60
2007,06,26,05,12,10.50
2007,06,26,05,13,10.40
2007,06,26,05,14,10.40
2007,06,26,05,15,10.40
2007,06,26,05,16,10.30
2007,06,26,05,17,10.30
2007,06,26,05,18,10.20
2007,06,26,05,19,10.20
2007,06,26,05,20,10.20
2007,06,26,05,21,10.10
2007,06,26,05,22,10.10
2007,06,26,05,23,10.10
2007,06,26,05,24,10.10
2007,06,26,05,25,10.10
2007,06,26,05,26,10.10
2007,06,26,05,27,10.10
2007,06,26,05,28,10.10
2007,06,26,05,29,10.10
2007,06,26,05,30,10.00
2007,06,26,05,31,9.90
2007,06,26,05,32,9.90
2007,06,26,05,33,9.90
2007,06,26,05,34,9.90
2007,06,26,05,35,9.90
2007,06,26,05,36,9.90
2007,06,26,05,37,9.90
2007,06,26,05,38,9.90
2007,06,26,05,39,9.90
2007,06,26,05,40,9.90
2007,06,26,05,41,9.90
2007,06,26,05,42,9.90
2007,06,26,05,43,9.90
2007,06,26,05,44,9.90
2007,06,26,05,45,9.90
2007,06,26,05,46,9.90
2007,06,26,05,47,10.00
2007,06,26,05,48,10.10
2007,06,26,05,49,10.10
2007,06,26,05,50,10.10
2007,06,26,05,51,10.10
2007,06,26,05,52,10.10
2007,06,26,05,53,10.10
2007,06,26,05,54,10.10
2007,06,26,05,55,10.10
2007,06,26,05,56,10.10
2007,06,26,05,57,10.10
2007,06,26,05,58,10.10
2007,06,26,05,59,10.10
2007,06,26,06,00,10.10
2007,06,26,06,01,10.20
2007,06,26,06,02,10.30
2007,06,26,06,03,10.30
2007,06,26,06,04,10.40
2007,06,26,06,05,10.40
2007,06,26,06,06,10.40
2007,06,26,06,07,10.40
2007,06,26,06,08,10.40
2007,06,26,06,09,10.40
2007,06,26,06,10,10.40
2007,06,26,06,11,10.40
2007,06,26,06,12,10.50
2007,06,26,06,13,10.60
2007,06,26,06,14,10.60
2007,06,26,06,15,10.60
2007,06,26,06,16,10.60
2007,06,26,06,17,10.60
2007,06,26,06,18,10.60
2007,06,26,06,19,10.60
2007,06,26,06,20,10.60
2007,06,26,06,21,10.60
2007,06,26,06,22,10.70
2007,06,26,06,23,10.70
2007,06,26,06,24,10.80
2007,06,26,06,25,10.80
2007,06,26,06,26,10.80
2007,06,26,06,27,10.90
2007,06,26,06,28,10.90
2007,06,26,06,29,10.90
2007,06,26,06,30,11.00
2007,06,26,06,31,11.10
2007,06,26,06,32,11.10
2007,06,26,06,33,11.20
2007,06,26,06,34,11.30
2007,06,26,06,35,11.40
2007,06,26,06,36,11.40
2007,06,26,06,37,11.40
2007,06,26,06,38,11.50
2007,06,26,06,39,11.60
2007,06,26,06,40,11.60
2007,06,26,06,41,11.60
2007,06,26,06,42,11.70
2007,06,26,06,43,11.70
2007,06,26,06,44,11.80
2007,06,26,06,45,11.80
2007,06,26,06,46,11.80
2007,06,26,06,47,11.90
2007,06,26,06,48,11.90
2007,06,26,06,49,11.90
2007,06,26,06,50,11.90
2007,06,26,06,51,12.00
2007,06,26,06,52,12.00
2007,06,26,06,53,12.00
2007,06,26,06,54,12.10
2007,06,26,06,55,12.10
2007,06,26,06,56,12.10
2007,06,26,06,57,12.20
2007,06,26,06,58,12.20
2007,06,26,06,59,12.30
2007,06,26,07,00,12.30
2007,06,26,07,01,12.30
2007,06,26,07,02,12.30
2007,06,26,07,03,12.40
2007,06,26,07,04,12.40
2007,06,26,07,05,12.50
2007,06,26,07,06,12.50
2007,06,26,07,07,12.60
2007,06,26,07,08,12.60
2007,06,26,07,09,12.60
2007,06,26,07,10,12.70
2007,06,26,07,11,12.70
2007,06,26,07,12,12.80
2007,06,26,07,13,12.80
2007,06,26,07,14,12.90
2007,06,26,07,15,13.00
2007,06,26,07,16,13.00
2007,06,26,07,17,13.10
2007,06,26,07,18,13.20
2007,06,26,07,19,13.20
2007,06,26,07,20,13.20
2007,06,26,07,21,13.30
2007,06,26,07,22,13.30
2007,06,26,07,23,13.30
2007,06,26,07,24,13.30
2007,06,26,07,25,13.30
2007,06,26,07,26,13.40
2007,06,26,07,27,13.40
2007,06,26,07,28,13.40
2007,06,26,07,29,13.50
2007,06,26,07,30,13.50
2007,06,26,07,31,13.50
2007,06,26,07,32,13.60
2007,06,26,07,33,13.60
2007,06,26,07,34,13.60
2007,06,26,07,35,13.70
2007,06,26,07,36,13.70
2007,06,26,07,37,13.70
2007,06,26,07,38,13.80
2007,06,26,07,39,13.80
2007,06,26,07,40,13.80
2007,06,26,07,41,13.80
2007,06,26,07,42,13.90
2007,06,26,07,43,13.90
2007,06,26,07,44,13.90
2007,06,26,07,45,13.90
2007,06,26,07,46,13.90
2007,06,26,07,47,14.00
2007,06,26,07,48,14.00
2007,06,26,07,49,14.00
2007,06,26,07,50,14.10
2007,06,26,07,51,14.10
2007,06,26,07,52,14.10
2007,06,26,07,53,14.10
2007,06,26,07,54,14.20
2007,06,26,07,55,14.20
2007,06,26,07,56,14.20
2007,06,26,07,57,14.20
2007,06,26,07,58,14.20
2007,06,26,07,59,14.20
2007,06,26,08,00,14.30
2007,06,26,08,01,14.30
2007,06,26,08,02,14.30
2007,06,26,08,03,14.40
2007,06,26,08,04,14.40
2007,06,26,08,05,14.30
2007,06,26,08,06,14.30
2007,06,26,08,07,14.30
2007,06,26,08,08,14.40
2007,06,26,08,09,14.40
2007,06,26,08,10,14.40
2007,06,26,08,11,14.40
2007,06,26,08,12,14.40
2007,06,26,08,13,14.40
2007,06,26,08,14,14.40
2007,06,26,08,15,14.40
2007,06,26,08,16,14.40
2007,06,26,08,17,14.50
2007,06,26,08,18,14.50
2007,06,26,08,19,14.50
2007,06,26,08,20,14.50
2007,06,26,08,21,14.50
2007,06,26,08,22,14.50
2007,06,26,08,23,14.60
2007,06,26,08,24,14.60
2007,06,26,08,25,14.60
2007,06,26,08,26,14.70
2007,06,26,08,27,14.70
2007,06,26,08,28,14.80
2007,06,26,08,29,14.80
2007,06,26,08,30,14.80
2007,06,26,08,31,14.80
2007,06,26,08,32,14.80
2007,06,26,08,33,14.80
2007,06,26,08,34,14.80
2007,06,26,08,35,14.80
2007,06,26,08,36,14.80
2007,06,26,08,37,14.80
2007,06,26,08,38,14.80
2007,06,26,08,39,14.80
2007,06,26,08,40,14.80
2007,06,26,08,41,14.80
2007,06,26,08,42,14.90
2007,06,26,08,43,15.00
2007,06,26,08,44,15.00
2007,06,26,08,45,15.10
2007,06,26,08,46,15.10
2007,06,26,08,47,15.10
2007,06,26,08,48,15.20
2007,06,26,08,49,15.30
2007,06,26,08,50,15.30
2007,06,26,08,51,15.30
2007,06,26,08,52,15.40
2007,06,26,08,53,15.50
2007,06,26,08,54,15.50
2007,06,26,08,55,15.60
2007,06,26,08,56,15.60
2007,06,26,08,57,15.60
2007,06,26,08,58,15.60
2007,06,26,08,59,15.70
2007,06,26,09,00,15.80
2007,06,26,09,01,15.80
2007,06,26,09,02,15.80
2007,06,26,09,03,15.70
2007,06,26,09,04,15.70
2007,06,26,09,05,15.80
2007,06,26,09,06,15.80
2007,06,26,09,07,15.80
2007,06,26,09,08,15.80
2007,06,26,09,09,15.80
2007,06,26,09,10,15.80
2007,06,26,09,11,15.90
2007,06,26,09,12,15.90
2007,06,26,09,13,15.90
2007,06,26,09,14,15.90
2007,06,26,09,15,15.80
2007,06,26,09,16,15.80
2007,06,26,09,17,15.80
2007,06,26,09,18,15.80
2007,06,26,09,19,15.80
2007,06,26,09,20,15.80
2007,06,26,09,21,15.80
2007,06,26,09,22,15.80
2007,06,26,09,23,15.90
2007,06,26,09,24,15.90
2007,06,26,09,25,15.90
2007,06,26,09,26,15.90
2007,06,26,09,27,15.90
2007,06,26,09,28,15.90
2007,06,26,09,29,15.90
2007,06,26,09,30,16.10
2007,06,26,09,31,16.10
2007,06,26,09,32,16.10
2007,06,26,09,33,16.10
2007,06,26,09,34,16.20
2007,06,26,09,35,16.30
2007,06,26,09,36,16.30
2007,06,26,09,37,16.30
2007,06,26,09,38,16.30
2007,06,26,09,39,16.30
2007,06,26,09,40,16.30
2007,06,26,09,41,16.30
2007,06,26,09,42,16.20
2007,06,26,09,43,16.20
2007,06,26,09,44,16.10
2007,06,26,09,45,16.10
2007,06,26,09,46,16.10
2007,06,26,09,47,16.10
2007,06,26,09,48,16.10
2007,06,26,09,49,16.10
2007,06,26,09,50,16.10
2007,06,26,09,51,16.20
2007,06,26,09,52,16.20
2007,06,26,09,53,16.20
2007,06,26,09,54,16.20
2007,06,26,09,55,16.10
2007,06,26,09,56,16.10
2007,06,26,09,57,16.20
2007,06,26,09,58,16.20
2007,06,26,09,59,16.10
2007,06,26,10,00,16.10
2007,06,26,10,01,16.10
2007,06,26,10,02,16.10
2007,06,26,10,03,16.10
2007,06,26,10,04,15.90
2007,06,26,10,05,16.00
2007,06,26,10,06,16.10
2007,06,26,10,07,16.10
2007,06,26,10,08,16.10
2007,06,26,10,09,16.10
2007,06,26,10,10,16.10
2007,06,26,10,11,16.10
2007,06,26,10,12,16.10
2007,06,26,10,13,16.10
2007,06,26,10,14,16.10
2007,06,26,10,15,16.10
2007,06,26,10,16,16.10
2007,06,26,10,17,16.20
2007,06,26,10,18,16.20
2007,06,26,10,19,16.30
2007,06,26,10,20,16.30
2007,06,26,10,21,16.20
2007,06,26,10,22,16.20
2007,06,26,10,23,16.30
2007,06,26,10,24,16.30
2007,06,26,10,25,16.30
2007,06,26,10,26,16.30
2007,06,26,10,27,16.30
2007,06,26,10,28,16.30
2007,06,26,10,29,16.40
2007,06,26,10,30,16.40
2007,06,26,10,31,16.50
2007,06,26,10,32,16.70
2007,06,26,10,33,16.70
2007,06,26,10,34,16.70
2007,06,26,10,35,16.80
2007,06,26,10,36,16.80
2007,06,26,10,37,16.90
2007,06,26,10,38,16.90
2007,06,26,10,39,17.00
2007,06,26,10,40,17.10
2007,06,26,10,41,17.20
2007,06,26,10,42,17.30
2007,06,26,10,43,17.30
2007,06,26,10,44,17.30
2007,06,26,10,45,17.40
2007,06,26,10,46,17.40
2007,06,26,10,47,17.50
2007,06,26,10,48,17.60
2007,06,26,10,49,17.70
2007,06,26,10,50,17.80
2007,06,26,10,51,17.80
2007,06,26,10,52,17.80
2007,06,26,10,53,17.90
2007,06,26,10,54,17.90
2007,06,26,10,55,17.90
2007,06,26,10,56,17.90
2007,06,26,10,57,18.00
2007,06,26,10,58,18.10
2007,06,26,10,59,18.10
2007,06,26,11,00,18.10
2007,06,26,11,01,18.20
2007,06,26,11,02,18.20
2007,06,26,11,03,18.20
2007,06,26,11,04,18.20
2007,06,26,11,05,18.20
2007,06,26,11,06,18.20
2007,06,26,11,07,18.30
2007,06,26,11,08,18.30
2007,06,26,11,09,18.20
2007,06,26,11,10,18.10
2007,06,26,11,11,18.10
2007,06,26,11,12,18.10
2007,06,26,11,13,18.10
2007,06,26,11,14,18.10
2007,06,26,11,15,18.20
2007,06,26,11,16,18.20
2007,06,26,11,17,18.30
2007,06,26,11,18,18.20
2007,06,26,11,19,18.20
2007,06,26,11,20,18.20
2007,06,26,11,21,18.30
2007,06,26,11,22,18.50
2007,06,26,11,23,18.60
2007,06,26,11,24,18.70
2007,06,26,11,25,18.80
2007,06,26,11,26,18.90
2007,06,26,11,27,18.80
2007,06,26,11,28,18.80
2007,06,26,11,29,18.90
2007,06,26,11,30,18.80
2007,06,26,11,31,18.70
2007,06,26,11,32,18.80
2007,06,26,11,33,18.90
2007,06,26,11,34,18.90
2007,06,26,11,35,18.90
2007,06,26,11,36,18.90
2007,06,26,11,37,18.90
2007,06,26,11,38,19.00
2007,06,26,11,39,19.10
2007,06,26,11,40,19.10
2007,06,26,11,41,19.10
2007,06,26,11,42,19.10
2007,06,26,11,43,19.00
2007,06,26,11,44,18.90
2007,06,26,11,45,18.90
2007,06,26,11,46,19.00
2007,06,26,11,47,19.10
2007,06,26,11,48,19.00
2007,06,26,11,49,18.90
2007,06,26,11,50,18.90
2007,06,26,11,51,18.90
2007,06,26,11,52,18.90
2007,06,26,11,53,19.00
2007,06,26,11,54,19.10
2007,06,26,11,55,19.20
2007,06,26,11,56,19.40
2007,06,26,11,57,19.50
2007,06,26,11,58,19.50
2007,06,26,11,59,19.50
2007,06,26,12,00,19.50
2007,06,26,12,01,19.50
2007,06,26,12,02,19.50
2007,06,26,12,03,19.50
2007,06,26,12,04,19.50
2007,06,26,12,05,19.50
2007,06,26,12,06,19.60
2007,06,26,12,07,19.70
2007,06,26,12,08,19.80
2007,06,26,12,09,20.00
2007,06,26,12,10,20.20
2007,06,26,12,11,20.30
2007,06,26,12,12,20.30
2007,06,26,12,13,20.30
2007,06,26,12,14,20.30
2007,06,26,12,15,20.30
2007,06,26,12,16,20.30
2007,06,26,12,17,20.30
2007,06,26,12,18,20.40
2007,06,26,12,19,20.40
2007,06,26,12,20,20.50
2007,06,26,12,21,20.60
2007,06,26,12,22,20.50
2007,06,26,12,23,20.50
2007,06,26,12,24,20.40
2007,06,26,12,25,20.30
2007,06,26,12,26,20.30
2007,06,26,12,27,20.30
2007,06,26,12,28,20.30
2007,06,26,12,29,20.30
2007,06,26,12,30,20.30
2007,06,26,12,31,20.40
2007,06,26,12,32,20.50
2007,06,26,12,33,20.70
2007,06,26,12,34,20.80
2007,06,26,12,35,20.80
2007,06,26,12,36,21.00
2007,06,26,12,37,21.10
2007,06,26,12,38,21.20
2007,06,26,12,39,21.20
2007,06,26,12,40,21.30
2007,06,26,12,41,21.30
2007,06,26,12,42,21.30
2007,06,26,12,43,21.30
2007,06,26,12,44,21.30
2007,06,26,12,45,21.30
2007,06,26,12,46,21.30
2007,06,26,12,47,21.30
2007,06,26,12,48,21.30
2007,06,26,12,49,21.30
2007,06,26,12,50,21.30
2007,06,26,12,51,21.30
2007,06,26,12,52,21.30
2007,06,26,12,53,21.30
2007,06,26,12,54,21.20
2007,06,26,12,55,21.10
2007,06,26,12,56,21.10
2007,06,26,12,57,21.20
2007,06,26,12,58,21.30
2007,06,26,12,59,21.30
2007,06,26,13,00,21.30
2007,06,26,13,01,21.30
2007,06,26,13,02,21.20
2007,06,26,13,03,21.20
2007,06,26,13,04,21.20
2007,06,26,13,05,21.20
2007,06,26,13,06,21.20
2007,06,26,13,07,21.20
2007,06,26,13,08,21.30
2007,06,26,13,09,21.30
2007,06,26,13,10,21.30
2007,06,26,13,11,21.40
2007,06,26,13,12,21.50
2007,06,26,13,13,21.60
2007,06,26,13,14,21.60
2007,06,26,13,15,21.60
2007,06,26,13,16,21.60
2007,06,26,13,17,21.60
2007,06,26,13,18,21.60
2007,06,26,13,19,21.50
2007,06,26,13,20,21.50
2007,06,26,13,21,21.60
2007,06,26,13,22,21.50
2007,06,26,13,23,21.40
2007,06,26,13,24,21.40
2007,06,26,13,25,21.30
2007,06,26,13,26,21.30
2007,06,26,13,27,21.30
2007,06,26,13,28,21.30
2007,06,26,13,29,21.40
2007,06,26,13,30,21.40
2007,06,26,13,31,21.50
2007,06,26,13,32,21.60
2007,06,26,13,33,21.70
2007,06,26,13,34,21.70
2007,06,26,13,35,21.70
2007,06,26,13,36,21.80
2007,06,26,13,37,21.90
2007,06,26,13,38,22.00
2007,06,26,13,39,22.10
2007,06,26,13,40,22.10
2007,06,26,13,41,22.10
2007,06,26,13,42,22.20
2007,06,26,13,43,22.20
2007,06,26,13,44,22.10
2007,06,26,13,45,22.10
2007,06,26,13,46,22.00
2007,06,26,13,47,22.10
2007,06,26,13,48,22.10
2007,06,26,13,49,22.10
2007,06,26,13,50,22.10
2007,06,26,13,51,22.10
2007,06,26,13,52,22.10
2007,06,26,13,53,22.20
2007,06,26,13,54,22.20
2007,06,26,13,55,22.20
2007,06,26,13,56,22.20
2007,06,26,13,57,22.20
2007,06,26,13,58,22.30
2007,06,26,13,59,22.40
2007,06,26,14,00,22.50
2007,06,26,14,01,22.60
2007,06,26,14,02,22.70
2007,06,26,14,03,22.70
2007,06,26,14,04,22.70
2007,06,26,14,05,22.80
2007,06,26,14,06,22.80
2007,06,26,14,07,22.60
2007,06,26,14,08,22.60
2007,06,26,14,09,22.40
2007,06,26,14,10,22.30
2007,06,26,14,11,22.30
2007,06,26,14,12,22.40
2007,06,26,14,13,22.50
2007,06,26,14,14,22.50
2007,06,26,14,15,22.60
2007,06,26,14,16,22.60
2007,06,26,14,17,22.60
2007,06,26,14,18,22.70
2007,06,26,14,19,22.70
2007,06,26,14,20,22.80
2007,06,26,14,21,22.70
2007,06,26,14,22,22.60
2007,06,26,14,23,22.50
2007,06,26,14,24,22.50
2007,06,26,14,25,22.50
2007,06,26,14,26,22.50
2007,06,26,14,27,22.60
2007,06,26,14,28,22.60
2007,06,26,14,29,22.50
2007,06,26,14,30,22.40
2007,06,26,14,31,22.30
2007,06,26,14,32,22.20
2007,06,26,14,33,22.10
2007,06,26,14,34,22.10
2007,06,26,14,35,22.10
2007,06,26,14,36,22.20
2007,06,26,14,37,22.20
2007,06,26,14,38,22.30
2007,06,26,14,39,22.30
2007,06,26,14,40,22.50
2007,06,26,14,41,22.60
2007,06,26,14,42,22.70
2007,06,26,14,43,22.80
2007,06,26,14,44,22.90
2007,06,26,14,45,22.90
2007,06,26,14,46,22.90
2007,06,26,14,47,22.80
2007,06,26,14,48,22.70
2007,06,26,14,49,22.60
2007,06,26,14,50,22.60
2007,06,26,14,51,22.50
2007,06,26,14,52,22.50
2007,06,26,14,53,22.50
2007,06,26,14,54,22.50
2007,06,26,14,55,22.50
2007,06,26,14,56,22.60
2007,06,26,14,57,22.60
2007,06,26,14,58,22.70
2007,06,26,14,59,22.70
2007,06,26,15,00,22.70
2007,06,26,15,01,22.70
2007,06,26,15,02,22.60
2007,06,26,15,03,22.60
2007,06,26,15,04,22.60
2007,06,26,15,05,22.60
2007,06,26,15,06,22.50
2007,06,26,15,07,22.40
2007,06,26,15,08,22.40
2007,06,26,15,09,22.40
2007,06,26,15,10,22.30
2007,06,26,15,11,22.30
2007,06,26,15,12,22.30
2007,06,26,15,13,22.30
2007,06,26,15,14,22.30
2007,06,26,15,15,22.40
2007,06,26,15,16,22.40
2007,06,26,15,17,22.40
2007,06,26,15,18,22.40
2007,06,26,15,19,22.40
2007,06,26,15,20,22.30
2007,06,26,15,21,22.20
2007,06,26,15,22,22.20
2007,06,26,15,23,22.20
2007,06,26,15,24,22.00
2007,06,26,15,25,22.00
2007,06,26,15,26,21.90
2007,06,26,15,27,21.80
2007,06,26,15,28,21.70
2007,06,26,15,29,21.70
2007,06,26,15,30,21.70
2007,06,26,15,31,21.60
2007,06,26,15,32,21.60
2007,06,26,15,33,21.70
2007,06,26,15,34,21.70
2007,06,26,15,35,21.60
2007,06,26,15,36,21.70
2007,06,26,15,37,21.70
2007,06,26,15,38,21.70
2007,06,26,15,39,21.70
2007,06,26,15,40,21.70
2007,06,26,15,41,21.70
2007,06,26,15,42,21.70
2007,06,26,15,43,21.70
2007,06,26,15,44,21.70
2007,06,26,15,45,21.80
2007,06,26,15,46,21.80
2007,06,26,15,47,21.80
2007,06,26,15,48,21.80
2007,06,26,15,49,21.80
2007,06,26,15,50,21.80
2007,06,26,15,51,21.80
2007,06,26,15,52,21.80
2007,06,26,15,53,21.70
2007,06,26,15,54,21.70
2007,06,26,15,55,21.70
2007,06,26,15,56,21.70
2007,06,26,15,57,21.70
2007,06,26,15,58,21.90
2007,06,26,15,59,22.00
2007,06,26,16,00,22.00
2007,06,26,16,01,22.00
2007,06,26,16,02,22.00
2007,06,26,16,03,22.00
2007,06,26,16,04,21.90
2007,06,26,16,05,21.90
2007,06,26,16,06,21.90
2007,06,26,16,07,21.90
2007,06,26,16,08,21.90
2007,06,26,16,09,22.00
2007,06,26,16,10,21.90
2007,06,26,16,11,21.90
2007,06,26,16,12,21.90
2007,06,26,16,13,21.90
2007,06,26,16,14,21.90
2007,06,26,16,15,21.90
2007,06,26,16,16,21.90
2007,06,26,16,17,22.00
2007,06,26,16,18,22.00
2007,06,26,16,19,22.10
2007,06,26,16,20,22.10
2007,06,26,16,21,22.10
2007,06,26,16,22,22.10
2007,06,26,16,23,22.10
2007,06,26,16,24,22.20
2007,06,26,16,25,22.20
2007,06,26,16,26,22.20
2007,06,26,16,27,22.20
2007,06,26,16,28,22.20
2007,06,26,16,29,22.20
2007,06,26,16,30,22.30
2007,06,26,16,31,22.30
2007,06,26,16,32,22.30
2007,06,26,16,33,22.10
2007,06,26,16,34,22.10
2007,06,26,16,35,22.10
2007,06,26,16,36,22.00
2007,06,26,16,37,22.00
2007,06,26,16,38,22.00
2007,06,26,16,39,22.00
2007,06,26,16,40,21.90
2007,06,26,16,41,21.90
2007,06,26,16,42,22.00
2007,06,26,16,43,22.00
2007,06,26,16,44,22.00
2007,06,26,16,45,22.10
2007,06,26,16,46,22.10
2007,06,26,16,47,22.10
2007,06,26,16,48,22.10
2007,06,26,16,49,22.20
2007,06,26,16,50,22.20
2007,06,26,16,51,22.20
2007,06,26,16,52,22.20
2007,06,26,16,53,22.20
2007,06,26,16,54,22.10
2007,06,26,16,55,22.10
2007,06,26,16,56,22.10
2007,06,26,16,57,22.10
2007,06,26,16,58,22.00
2007,06,26,16,59,22.00
2007,06,26,17,00,22.00
2007,06,26,17,01,22.00
2007,06,26,17,02,22.00
2007,06,26,17,03,22.00
2007,06,26,17,04,21.90
2007,06,26,17,05,21.90
2007,06,26,17,06,21.80
2007,06,26,17,07,21.80
2007,06,26,17,08,21.80
2007,06,26,17,09,21.80
2007,06,26,17,10,21.80
2007,06,26,17,11,21.80
2007,06,26,17,12,21.70
2007,06,26,17,13,21.70
2007,06,26,17,14,21.70
2007,06,26,17,15,21.70
2007,06,26,17,16,21.70
2007,06,26,17,17,21.70
2007,06,26,17,18,21.80
2007,06,26,17,19,21.80
2007,06,26,17,20,21.90